#timestamp,LO_Frequency,Hit,StdDev 
1580551215.4,286047004.6,N
1580551235.2,286047006.0,N
1580551255.1,286047005.9,N
1580551256.0,286047005.9,N
1580551275.8,286047006.0,N
1580551295.6,286047005.9,N
1580551315.5,286047004.3,N
1580551335.3,286047001.6,N
1580551355.2,286047003.2,N
1580551375.9,286046999.8,N
1580551395.7,286046999.7,N
1580551415.6,286047002.8,N
1580551435.4,286046999.8,N
1580551455.2,286046999.7,N
1580551475.1,286047002.8,N
1580551476.0,286047002.8,N
1580551495.8,286047000.7,N
1580551515.7,286047000.9,N
1580551535.5,286046999.0,N
1580551555.3,286046999.4,N
1580551575.2,286046998.6,N
1580551595.0,286046998.7,N
1580551595.9,286046998.7,N
1580551615.8,286046998.8,N
1580551635.6,286046998.9,N
1580551655.4,286046998.6,N
1580551675.3,286046998.9,N
1580551695.1,286046999.2,N
1580551715.8,286046996.9,N
1580551735.7,286046999.6,N
1580551755.5,286046997.3,N
1580551775.4,286046996.9,N
1580551795.2,286046998.3,N
1580551815.0,286046999.4,N
1580551815.9,286046999.4,N
1580551835.8,286046997.3,N
1580551855.6,286046995.2,N
1580551875.4,286046996.4,N
1580551895.3,286046995.9,N
1580551915.1,286046996.3,N
1580551935.9,286046995.9,N
1580551955.7,286046997.5,N
1580551975.5,286046993.5,Y
1580551995.4,286046993.5,P
1580552015.2,286046994.0,N
1580552035.1,286046993.9,N
1580552036.0,286046993.9,N
1580552055.8,286046994.4,N
1580552075.6,286046993.6,Y
1580552095.5,286046998.2,P
1580552115.3,286047001.1,N
1580552135.2,286046998.1,N
1580552155.9,286047001.2,N
1580552175.7,286046997.8,N
1580552195.6,286046997.3,N
1580552215.4,286046995.4,N
1580552235.2,286046996.4,N
1580552255.1,286046996.4,N
1580552256.0,286046996.4,N
1580552275.8,286046993.5,Y
1580552295.7,286046997.3,P
1580552315.5,286046997.2,P
1580552335.3,286046997.4,P
1580552355.2,286046996.0,Y
1580552375.0,286046995.6,P
1580552375.9,286046995.6,P
1580552395.8,286046993.7,P
1580552415.6,286046996.0,Y
1580552435.4,286046997.3,P
1580552455.3,286046996.8,P
1580552475.1,286046997.7,P
1580552495.9,286046999.6,N
1580552515.7,286046999.0,N
1580552535.5,286046999.9,N
1580552555.4,286047000.6,N
1580552575.2,286046999.3,N
1580552595.0,286046999.5,N
1580552595.9,286046999.5,N
1580552615.8,286046997.4,N
1580552635.6,286046997.5,N
1580552655.5,286046999.3,N
1580552705.3,286046999.6,E
1580552715.2,286046999.6,N
1580552735.1,286046998.4,P
1580552736.0,286046998.4,N
1580552755.8,286046997.1,Y
1580552775.7,286046995.7,P
1580552795.5,286046995.6,N
1580552815.3,286046993.3,P
1580552835.2,286046993.4,Y
1580552855.0,286046998.6,P
1580552855.9,286046998.6,N
1580552875.8,286047001.1,N
1580552895.6,286046998.7,N
1580552915.4,286047000.7,N
1580552935.3,286047002.4,N
1580552955.1,286047002.3,N
1580552975.8,286047002.4,N
1580552995.7,286047003.9,N
1580553015.5,286047005.8,N
1580553035.4,286047009.1,Y
1580553055.2,286047007.0,P
1580553075.0,286047005.1,N
1580553075.9,286047005.1,N
1580553095.8,286047004.1,N
1580553115.6,286047002.2,N
1580553135.5,286047002.1,N
1580553155.3,286047002.7,N
1580553175.1,286046998.7,N
1580553195.9,286046999.1,N
1580553215.7,286046999.9,N
1580553235.6,286047004.2,N
1580553255.4,286047005.9,N
1580553275.2,286047003.5,N
1580553295.1,286047004.2,N
1580553296.0,286047004.2,N
1580553315.8,286047001.5,N
1580553335.6,286047002.1,N
1580553355.5,286047003.8,N
1580553375.3,286047003.8,N
1580553395.2,286047003.0,N
1580553415.9,286047004.4,N
1580553435.7,286047004.3,N
1580553455.6,286047000.5,N
1580553475.4,286046996.9,N
1580553495.2,286046997.0,N
1580553515.1,286046996.1,N
1580553516.0,286046996.1,N
1580553535.8,286046995.6,N
1580553555.7,286046995.5,N
1580553575.5,286046996.2,N
1580553595.3,286046994.9,N
1580553615.2,286046998.4,N
1580553635.0,286047000.4,N
1580553635.9,286047000.4,N
1580553655.8,286047002.4,N
1580553675.6,286047000.5,N
1580553695.4,286046999.8,N
1580553715.3,286047001.4,N
1580553735.1,286047002.1,N
1580553755.8,286047004.2,N
1580553775.7,286047003.8,N
1580553795.5,286047004.7,N
1580553815.4,286047005.3,N
1580553835.2,286047005.4,N
1580553855.0,286047004.7,N
1580553855.9,286047004.7,N
1580553875.8,286047005.3,N
1580553895.6,286047007.6,N
1580553915.4,286047007.2,N
1580553935.3,286047004.9,N
1580553955.1,286047005.7,N
1580553975.9,286047006.0,N
1580553995.7,286047005.5,N
1580554015.5,286047003.7,N
1580554035.4,286047005.8,N
1580554055.2,286047007.6,N
1580554075.0,286047006.6,N
1580554075.9,286047006.6,N
1580554095.8,286047008.3,N
1580554115.6,286047008.2,N
1580554135.5,286047007.8,N
1580554155.3,286047008.5,Y
1580554175.1,286047004.3,P
1580554195.9,286047004.0,P
1580554215.7,286047002.1,P
1580554235.6,286047000.5,N
1580554255.4,286046998.1,N
1580554275.2,286047000.7,N
1580554295.1,286047004.0,N
1580554296.0,286047004.0,N
1580554315.8,286047001.4,N
1580554335.6,286047003.8,N
1580554355.5,286047004.0,N
1580554375.3,286047002.1,N
1580554395.2,286047002.0,N
1580554415.9,286047002.4,N
1580554435.7,286047001.7,N
1580554455.6,286047001.5,N
1580554475.4,286047003.9,N
1580554495.2,286047003.4,N
1580554515.1,286047002.9,N
1580554516.0,286047002.9,N
1580554535.8,286047003.1,N
1580554555.7,286047005.1,Y
1580554575.5,286047001.4,P
1580554595.3,286047004.2,P
1580554615.2,286047004.3,P
1580554635.0,286047002.7,N
1580554635.9,286047002.7,N
1580554655.8,286047002.6,N
1580554675.6,286047002.4,N
1580554695.4,286047001.3,N
1580554715.3,286047003.2,Y
1580554735.1,286046999.9,P
1580554755.9,286046999.7,N
1580554775.7,286047000.7,N
1580554795.5,286046999.1,N
